Preview of NWS' New Version of Forecast
This preview is not operational and should not be used for support decisions.
Latest weather observations around

Anniston Metro Airport (KANB)

Using English Units (Switch to International System of Units)
Date/ Time (CDT) Wind (mph) Vis. (mi) Weather Sky Cond. Temp (°F) Rel. Humidity Wind Chill (°F) Heat Index (°F) Pressure Precip. (in)
Air Dwpt 6 hour Altimeter (inHg) Sea level (inHg) 1 hr 3 hr 6 hr
Max Min
Apr 19 16:53 NNW 11 10 Clear CLR 60 36     40%     30.17 30.17      
Apr 19 15:53 NW 14 10 Clear CLR 61 38     42%     30.17 30.16      
Apr 19 14:53 NNW 8 10 Clear CLR 62 39     43%     30.17 30.16      
Apr 19 13:53   10 Clear CLR 62 38     41%     30.17 30.16      
Apr 19 12:53 N 9 10 Clear CLR 62 39     43%     30.16 30.15      
Apr 19 11:53 NW 14 10 Clear CLR 63 39     41%     30.14 30.13      
Apr 19 10:53 NW 9 10 Clear CLR 61 40     46%     30.13 30.12      
Apr 19 09:53 N 8 10 Clear CLR 60 41     49%     30.11 30.1      
Apr 19 08:53 N 7 10 Clear CLR 59 43     55%     30.08 30.08      
Apr 19 07:53 WNW 11 10 Clear CLR 60 44     55%     30.07 30.06      
Apr 19 06:53 WNW 7 10 Clear CLR 60 43     53%     30.04 30.02      
Apr 19 05:53 WNW 6 10 Clear CLR 61 46     58%     30 29.98      
Apr 19 04:53 WSW 5 10 Mostly Cloudy BKN048 61 58     90%     29.97 29.95      
Apr 19 03:53 SW 5 10 Partly Cloudy SCT024 60 57     90%     29.95 29.93      
Apr 19 02:53 W 3 10 Mostly Cloudy BKN029 59 56     90%     29.94 29.92      
Apr 19 01:53 Calm 10 Clear CLR 59 56     90%     29.94 29.93      
Apr 19 00:53 WSW 6 10 Clear CLR 63 57     81%     29.96 29.94      
Apr 18 23:53 WSW 8 10 Mostly Cloudy BKN055 65 57     76%     29.97 29.95      
Apr 18 22:53 WSW 6 10 Cloudy OVC060 65 56     73%     29.96 29.95      
Apr 18 21:53 W 5 10 Mostly Cloudy BKN060 65 55     70%     29.96 29.94      
Apr 18 20:53 W 5 10 Clear CLR 66 55     68%     29.95 29.94      
Apr 18 19:53 WSW 5 10 Clear CLR 70 54     57%     29.94 29.93      
Apr 18 18:53 SW 9 10 Clear CLR 76 53     45%   75 29.92 29.91      
Apr 18 17:53 SW 11 10 Clear CLR 79 51     38%   78 29.91 29.9      
Apr 18 16:53   10 Clear CLR 80 48     33%   79 29.91 29.89      
Apr 18 15:53 SW 16 10 Clear CLR 81 49     33%   80 29.91 29.9      
Apr 18 14:53 SW 16 10 Clear CLR 80 49     34%   79 29.94 29.92      
Apr 18 13:53 WSW 20 10 Clear and Windy CLR 79 49     35%   78 29.96 29.95      
Apr 18 12:53 SSW 16 10 Clear CLR 77 51     40%   76 29.98 29.96      
Apr 18 11:53 SSW 15 10 Clear CLR 74 53     48%   73 29.99 29.98      
Apr 18 10:53 WSW 16 10 Clear CLR 70 54     57%     30.03 30.02      
Apr 18 09:53 WSW 20 10 Clear and Windy CLR 67 55     66%     30.02 30.02      
Apr 18 09:34 WSW 18 10 Partly Cloudy SCT019 65 55     70%     30.03        
Apr 18 08:53 SW 16 10 Cloudy OVC017 61 55     81%     30.03 30.02      
Apr 18 07:53 WSW 9 10 Cloudy OVC017 58 53     84%     30.03 30.02      
Apr 18 07:40 WSW 8 10 Mostly Cloudy BKN018 57 52     83%     30.03        
Apr 18 06:53 WSW 5 10 Clear CLR 52 48     86%     30.02 30.01      
Apr 18 05:53 SW 6 10 Clear CLR 50 46     86% 48   30 29.99      
Apr 18 04:53 WSW 5 10 Clear CLR 53 46     77%     29.97 29.96      
Apr 18 03:53 WSW 9 10 Clear CLR 56 46     69%     29.96 29.94      
Apr 18 02:53 WSW 9 10 Clear CLR 57 45     64%     29.94 29.93      
Apr 18 01:53 WSW 8 10 Clear CLR 58 45     62%     29.95 29.93      
Apr 18 00:53 SW 11 10 Clear CLR 61 46     58%     29.95 29.93      
Apr 17 23:53 WSW 11 10 Clear CLR 60 48     64%     29.95 29.94      
Apr 17 22:53 Calm 10 Clear CLR 53 48     83%     29.96 29.96      
Apr 17 21:53 Calm 10 Clear CLR 56 48     75%     29.96 29.96      
Apr 17 20:53 Calm 10 Clear CLR 60 46     60%     29.96 29.97      
Apr 17 19:53 WSW 7 10 Clear CLR 64 45     50%     29.96 29.96      
Apr 17 18:53 SW 9 10 Clear CLR 71 44     38%   70 29.95 29.95      
Apr 17 17:53 SW 15 10 Clear CLR 75 45     34%   74 29.95 29.96      
Apr 17 16:53 SW 11 10 Clear CLR 75 46     36%   74 29.96 29.96      
Apr 17 15:53 SW 13 10 Clear CLR 75 47     37%   74 29.98 29.98      
Apr 17 14:53 WSW 11 10 Clear CLR 74 47     38%   73 30 30      
Apr 17 13:53 SW 15 10 Clear CLR 73 46     38%   72 30.03 30.03      
Apr 17 12:53 WSW 10 10 Clear CLR 70 45     41%     30.06 30.07      
Apr 17 11:53 WSW 17 10 Clear CLR 67 44     44%     30.09 30.1      
Apr 17 10:53 W 13 10 Clear CLR 63 42     46%     30.11 30.12      
Apr 17 09:53 W 6 10 Clear CLR 57 40     53%     30.13 30.14      
Apr 17 08:53 WSW 10 10 Clear CLR 50 39     66% 46   30.14 30.16      
Apr 17 07:53 WSW 3 10 Clear CLR 43 39     86% 41   30.14 30.15      
Apr 17 06:53 Calm 10 Clear CLR 36 34     92%     30.13 30.15      
Apr 17 05:53 Calm 10 Clear CLR 35 32     88%     30.11 30.13      
Apr 17 04:53 Calm 10 Clear CLR 35 32     88%     30.1 30.12      
Apr 17 03:53 Calm 10 Clear CLR 36 33     89%     30.11 30.12      
Apr 17 02:53 Calm 10 Clear CLR 37 34     89%     30.1 30.11      
Apr 17 01:53 WSW 5 10 Clear CLR 37 34     89% 33   30.1 30.12      
Apr 17 00:53 WSW 5 10 Clear CLR 38 34     85% 34   30.1 30.12      
Apr 16 23:53 WSW 3 10 Clear CLR 39 35     86% 37   30.11 30.13      
Apr 16 22:53 SSW 6 10 Clear CLR 41 36     82% 37   30.1 30.12      
Apr 16 21:53 WSW 6 10 Clear CLR 42 36     79% 38   30.1 30.12      
Apr 16 20:53 WSW 5 10 Clear CLR 45 36     71% 43   30.09 30.11      
Apr 16 19:53 W 7 10 Clear CLR 50 32     50% 47   30.07 30.09      
Apr 16 18:53 W 8 10 Clear CLR 53 31     43%     30.05 30.07      
Apr 16 17:53 W 10 10 Clear CLR 55 32     41%     30.04 30.06      
Jun 11 20:53 Calm 10 Partly Cloudy SCT048 SCT080 80 70     71%   83 30.11 30.08      
Jun 11 08:33 ENE 5 10 Partly Cloudy SCT018 76 69     79%   77 30.19        
Jun 10 18:53 SSE 5 10 Clear CLR 83 62     49%   84 30.05 30.03      
Jun 09 15:53 WSW 8 10 Clear CLR 83 57     41%   82 29.95 29.93      
Jun 09 00:53 Calm 10 Clear CLR 64 60     87%     29.92 29.9